sat.trackr.live / text

‹ back to catalog

ONEWEB-0214

NORAD 48788 · 2021-045X

PAYLOAD ACTIVE UNKNOWN

§ Identity

Operator
Country
UK
Launch date
2021-05-28
Launch site
VOSTO
Launch vehicle
Mass (kg)
RCS (m²)

Purposes: comms

External: N2YO · Heavens-Above · Gunter

§ Orbital elements

Epoch: 2026-05-25T00:56:39.475392Z

Period
109.46 min
Inclination
87.9001°
Eccentricity
0.0002119
Mean motion
13.15547186 rev/d
Perigee alt
1,200.2 km
Apogee alt
1,203.4 km
Semi-major
7,579.9 km
B*
-1.7790e-4
RAAN
263.7916°
Arg perigee
91.3727°
Mean anomaly
268.7646°
Rev number
24,124

§ Raw data

ONEWEB-02141 48788U 21045X   26145.03934578 -.00000054  00000+0 -17790-3 0  99912 48788  87.9001 263.7916 0002119  91.3727 268.7646 13.15547186241241

JSON: /api/v1/satellites/48788 · /tle

For live sub-satellite position, see the globe view (requires WebGL).

§ Visibility from observer

Set your observer location to see the next 7 days of passes ≥ 10°. The values pass through the URL so the page stays shareable.

No JS? Fill the form by hand. The geolocation button needs JavaScript.